Regional Weather Roundup
Issued by NWS

Home | Current Version | Previous Version | Text Only | Print | Product List | Glossary Off
Versions: 1 2 3 4 5 6 7 8 9 10 11 12 13 14 15 16 17 18 19 20 21 22 23 24 25 26 27 28 29 30 31 32 33 34 35 36 37 38 39 40 41 42 43 44 45 46 47 48 49 50

000
ASUS45 KBOU 300510
RWRCO

WEATHER ROUNDUP FOR COLORADO
NATIONAL WEATHER SERVICE DENVER/BOULDER CO
1100 PM MDT MON JUN 29 2015

NOTE: "FAIR" INDICATES FEW OR NO CLOUDS BELOW 12000 FEET WITH NO
SIGNIFICANT WEATHER AND/OR OBSTRUCTIONS TO VISIBILITY.

COZ001>005-013-030-031-300600-
...NORTHWEST COLORADO...

CITY           SKY/WX    TMP DP  RH WIND       PRES   REMARKS
CRAIG          CLEAR     62  45  53 CALM      30.24R
HAYDEN         CLEAR     70  43  37 SE7       30.27R
MEEKER         PTCLDY    66  47  50 E8        30.24R
MOUNT WERNER   NOT AVBL
STEAMBOAT SPGS CLEAR     69  45  41 NW7       30.30R
WALDEN         CLEAR     59  41  51 S3        30.43R
$$

COZ006>008-011-300600-
...WEST CENTRAL VALLEYS...

CITY           SKY/WX    TMP DP  RH WIND       PRES   REMARKS
GRAND JUNCTION CLEAR     82  41  23 E3        30.06R
MONTROSE       CLEAR     80  47  31 SE5       30.18R
EAGLE          CLEAR     70  45  40 E6        30.29R
RIFLE          CLEAR     76  42  29 E6        30.15R
DELTA          CLEAR     84  38  19 NE9       30.11S
NUCLA          CLEAR     75  43  31 E8        30.21S
$$

COZ017>023-064>068-300600-
...SOUTHWEST COLORADO...

CITY           SKY/WX    TMP DP  RH WIND       PRES   REMARKS
DURANGO        CLOUDY    61  55  81 CALM      30.27R
CORTEZ         CLEAR     69  49  48 E6        30.18R
PAGOSA SPRINGS CLOUDY    61  46  58 CALM      30.37S
TELLURIDE      PTCLDY    65  40  38 SE3       30.49R
WOLF CREEK PAS NOT AVBL
$$

COZ009-010-012-014-032>034-037-058>063-300600-
...CENTRAL COLORADO...

CITY           SKY/WX    TMP DP  RH WIND       PRES   REMARKS
ASPEN          CLEAR     63  42  46 SW6       30.38R
BUENA VISTA    PTCLDY    63  49  60 E3        30.45S
COPPER MTN     CLEAR     55  41  58 S18       30.75S
BERTHOUD PASS  FAIR      45  34  65 SE8       30.80S
COTTONWOOD PAS NOT AVBL
GUNNISON       CLEAR     66  46  48 N9        30.42R
KREMMLING      CLEAR     66  43  42 CALM      30.38R
LEADVILLE      CLEAR     52  40  63 S3        30.58R
MONARCH PASS   PTCLDY    46  43  87 NE20      30.83S
SALIDA         PTCLDY    60  52  75 W7        30.49S
SUNLIGHT       CLEAR     61  41  48 NE3       30.65S
WILKERSON PASS MOCLDY    52  39  62 SE5       30.73S
$$

COZ069>075-300600-
...SAN LUIS VALLEY/SANGRE DE CRISTO MOUNTAINS...

CITY           SKY/WX    TMP DP  RH WIND       PRES   REMARKS
ALAMOSA        CLEAR     61  47  59 S8        30.37R
LA VETA PASS   CLEAR     52  41  66 MISG      30.61R
SAGUACHE       PTCLDY    57  52  82 NW7       30.41S
$$

COZ035-036-038>040-300600-
...NORTHERN COLORADO FRONT RANGE...

CITY           SKY/WX    TMP DP  RH WIND       PRES   REMARKS
DENVER INTL AP PTCLDY    66  54  65 S10       30.23S
DMNS CITY PARK   N/A     69  55  62 NE1       30.23S
AURORA         PTCLDY    69  55  60 SE8       30.26R
FRONT RANGE AP NOT AVBL
ERIE MUNI ARPT CLEAR     66  54  63 CALM      30.22R
BOULDER MUN AP CLEAR     73  46  38 E6        30.22S
CENTENNIAL     PTCLDY    68  53  58 S3        30.27R
BROOMFIELD     NOT AVBL
FORT COLLINS   CLEAR     72  55  56 S7        30.22R
LONGMONT       CLEAR     70  52  52 CALM      30.23R
$$

COZ041-046-047-076>085-087-088-300600-
...PIKES PEAK/PALMER DIVIDE AND SOUTHERN FOOTHILLS...

CITY           SKY/WX    TMP DP  RH WIND       PRES   REMARKS
COLO. SPRINGS  PTCLDY    67  53  61 N5        30.32S
A. F. ACADEMY  PTCLDY    62  51  68 N3        30.34R
ELLICOTT       CLEAR      1  32 100 S7        30.30S WCI -12
FALCON         CLEAR     63  50  63 S3        30.37S
FORT CARSON    PTCLDY    70  55  59 CALM      30.28S
LIMON          CLEAR     60  58  92 CALM      30.24S
MONUMENT HILL  CLEAR     59  50  72 S8        30.37S
TRINIDAD       CLEAR     70  51  51 W13       30.27R
$$

COZ042>045-048>051-090-091-300600-
...NORTHEAST COLORADO...

CITY           SKY/WX    TMP DP  RH WIND       PRES   REMARKS
GREELEY ARPT   CLEAR     70  55  60 CALM      30.19S
AKRON          CLEAR     70  54  56 S6        30.18S
BURLINGTON     CLEAR     64  54  69 S8        30.16R
WRAY           CLEAR     69  56  65 SW8       30.11S
STERLING       CLEAR     64  59  82 W5        30.13R
HOLYOKE        CLEAR     72  61  68 S7        30.11S
FORT MORGAN    CLEAR     70  -6   5 E3        30.17S
$$

COZ086-089-092>099-300600-
...SOUTHEAST COLORADO...

CITY           SKY/WX    TMP DP  RH WIND       PRES   REMARKS
PUEBLO         PTCLDY    71  53  52 CALM      30.19S
LA JUNTA       CLEAR     70  54  56 SW7       30.16R
LAMAR          CLEAR     69  55  60 CALM      30.11R
SPRINGFIELD      N/A     62  51  67 CALM      30.18S
$$



USA.gov is the U.S. government's official web portal to all federal, state and local government web resources and services.